Regional Weather Roundup
Issued by NWS Cleveland, OH

Home | Current Version | Previous Version | Graphics & Text | Print | Product List | Glossary On
Versions: 1 2 3 4 5 6 7 8 9 10 11 12 13 14 15 16 17 18 19 20 21 22 23 24 25 26 27 28 29 30 31 32 33 34 35 36 37 38 39 40 41 42 43 44 45 46 47 48 49 50
000
ASUS41 KCLE 231512
RWRCLE
OHIO REGIONAL WEATHER ROUNDUP
NATIONAL WEATHER SERVICE WILMINGTON, OH
1100 AM EDT SAT JUL 23 2016

NOTE: "FAIR" INDICATES FEW OR NO CLOUDS BELOW 12,000 FEET WITH NO
SIGNIFICANT WEATHER AND/OR OBSTRUCTIONS TO VISIBILITY.

OHZ001>008-015>018-024>027-034-035-043-044-231600-
   NORTHWEST OHIO

CITY           SKY/WX    TMP DP  RH WIND       PRES   REMARKS
DEFIANCE       FAIR      83  69  62 SE5       29.99F
FINDLAY        FAIR      85  71  63 SW7       30.00F HX  90
TOLEDO EXPRESS FAIR      83  72  69 SW3       29.99F
TOLEDO EXEC    FAIR      85  72  65 SW3       30.00F HX  91
LIMA           FAIR      82  74  76 VRB3      30.01F
$$

OHZ009>014-019>023-028>033-038-089-231600-
   NORTHEAST OHIO

CITY           SKY/WX    TMP DP  RH WIND       PRES   REMARKS
CLE-HOPKINS    PTSUNNY   88  71  57 VRB5      30.02R HX  94
CLE-LAKEFRONT  FAIR      81  75  82 W7        29.99R
CUY CO. ARPT   MOSUNNY   84  77  79 NW9       30.01S HX  94
LORAIN-ELYRIA  FAIR      85  71  63 N8        30.01S HX  90
ASHTABULA      FAIR      84  69  60 CALM      30.00F
AKRON-CANTON   FAIR      86  71  60 VRB3      30.02S HX  91
WOOSTER        PTSUNNY   84  72  67 NW3       30.02F
MANSFIELD      FAIR      84  72  67 W5        30.03F
YOUNGSTOWN     FAIR      84  70  62 N5        30.02R
$$

OHZ042-051>053-060>062-070>072-077>081-231600-
  SOUTHWEST OHIO

CITY           SKY/WX    TMP DP  RH WIND       PRES   REMARKS
CINC-COVINGTON FAIR      84  74  71 S5        30.04F HX  91
CINC-LUNKEN    FAIR      82  76  81 S5        30.03F
HAMILTON       FAIR      86  73  65 VRB3      30.04S HX  93
DAYTON         PTSUNNY   83  71  67 VRB3      30.05S
WRIGHT-PAT AFB MOSUNNY   83  74  76 VRB1      30.03S
DAYTON GENERAL FAIR      84  71  65 VRB5      30.04R
WILMINGTON     FAIR      84  72  67 CALM      30.04S
$$

OHZ036-037-039>041-045>050-054>059-063>069-073>076-082>088-231600-
  CENTRAL AND SOUTHEAST OHIO

CITY           SKY/WX    TMP DP  RH WIND       PRES   REMARKS
COLUMBUS       FAIR      83  72  69 SW6       30.02S
OSU AIRPORT    FAIR      85  72  65 CALM      30.02F HX  91
BOLTON FIELD   SUNNY     82  75  78 CALM      30.03F
RICKENBACK AFB FAIR      81  74  77 SW5       30.02S
NEWARK         FAIR      85  73  67 CALM      30.02S HX  91
MARION         PTSUNNY   85  70  60 NW5       30.03F
LANCASTER      FAIR      85  74  69 CALM      30.03F HX  92
ZANESVILLE     FAIR      87  73  62 VRB5      30.03S HX  94
NEW PHILLY     FAIR      87  72  60 S5        30.02F HX  93
$$




USA.gov is the U.S. government's official web portal to all federal, state and local government web resources and services.